Погода в Угерске-Градиште

Чехия     49°04′08″N   17°27′59″E
темп.,
°C
ветер,
м/с
пор.,
м/с
влажн.,
%
обл.,
%
осадки,
мм/ч
давл.,
гПа
погр.,
м
16 мая, вс
вс1623:00+10юв379196 0.6 1007150
02:00+10ююв31094100 2.6 1007295
05:00+9ююз2295100 1.3 100653
08:00+11юз2493100 1.6 1008438
11:00+13з347984 0.4 1008839
14:00+16з556181 0.9 10071661
17:00+16зюз44603 0.1 10061376
20:00+12ююв227529 0.1 100610
17 мая, пн
пн1723:00+11юв3377100 0.0 100743
02:00+10вюв228752 1.0 100618
05:00+10в2696100 2.7 1004205
08:00+10с1299100 12.8 1005137
11:00+9сз51096100 11.9 1006604
14:00+10зсз3794100 21.8 1007516
17:00+12сз5884100 1.6 1007939
20:00+10зсз51089100 2.1 1008383
18 мая, вт
вт1823:00+8з4109199 0.1 1010443
02:00+8зсз5128934 0.1 1011596
05:00+5зюз359546 0.0 1012103
08:00+8зюз3988100 0.0 1013434
11:00+13з797197 0.1 10131468
14:00+12з697739 0.3 1013937
17:00+15зсз576713 0.1 10121419
20:00+11з338449 0.4 101340
19 мая, ср
ср1923:00+7з259488 0.2 101593
02:00+7зюз229378 0.2 101635
05:00+5зюз2397100 0.0 101674
08:00+9сз3785100 0.0 1017606
11:00+11сз4571100 0.2 10161260
14:00+11сз6872100 0.3 1016951
17:00+11ссз6876100 0.1 1015774
20:00+9ссз4882100 0.1 1016330
20 мая, чт
чт2023:00+6ссз1192100 0.0 101711
02:00+5зсз1193100 0.0 101611
05:00+4з119499 0.0 101710
08:00+8ссз2584100 0.0 1017400
11:00+13ссз5767100 0.1 10171285
14:00+14ссз6766100 0.9 10171517
17:00+13ссз587848 2.5 10171132
20:00+10ссз388742 4.4 1019180